STARLINK-1114, 44927

Orbit data source: Space-Track

STARLINK-1114, 44927 is a payload satellite owned by SpaceX/Seattle (US) in LEO that was launched on Tue, 07 Jan 2020 UTC via an FALCON 9 launch vehicle from the Air Force Eastern Test Range (AFETR). Payload-class satellites include a variety of spacecraft equipped with specific instruments for various scientific and technological missions. These include communications satellites like Starlink; space stations such as the ISS; scientific satellites like the Hubble; Earth observation satellites from companies like Planet Labs, Umbra, and HawkEye 360; GPS; miniature CubeSats for education and research; and military/defense satellites.

Loading next visibility...
Identifier
44927, 2020-001P
Orbit
LEO
Country
Flag of USUS
Related business
Manufacturer
SpaceX/Seattle
Mission
Partially operational Commercial Communications
Bus & Motor
STARLINK, Unknown motor
Mass
260 kg wet, ~248 kg dry
Launch date (UTC)
2020-01-07 (6 years ago)
Launch vehicle
FALCON 9
Launch site
Air Force Eastern Test Range (AFETR)
Object type
Payload
Rocket body
Debris
Shape & HBR
Box + 1 Pan, 10.1 m
Radar Cross Section
13.562 m², Large (>1 m²)

Expand to show TLE details & history
Last TLE update: 2 days ago

TLE from 2 days ago
0 STARLINK-1114
1 44927U 20001P   26171.43866279  .00079079  00000-0  74855-3 0  9995
2 44927  53.0393 189.5193 0004887  38.5019 321.6343 15.66282835356125
Epoch: 2026-06-20T10:31Z
TLE epoch observation values (Epoch: 2026-06-20T10:31:40.465Z)
Latitude
-0.00006°
Longitude
122.94737°
Altitude
367.868 km
Speed
7.691 km/s
True Right ascension
12h 38m 04s
True Declination
0° 00' 00"
Sunlit
Object was in daylight at epoch
Visualization orbit readout
Latitude
Unknown
Longitude
Unknown
Altitude
Unknown
Speed
Unknown
Apparent Right ascension
Unknown
Apparent Declination
Unknown
Sunlit
N/A
Visualization observer readout
Local Sidereal Time
21:35:03
Azimuth
Unknown
Elevation
Unknown
Doppler factor
Unknown
Orbital elements
Apogee altitude
373.13 km
Perigee altitude
366.534 km
Semi-major axis
6,747.969 km
Eccentricity
0.00049
Inclination
53.0393°
RAAN
189.5193°
Arg. of periapsis
38.5019°
True anomaly
321.59952°
Mean anomaly
321.6343°
Eccentric anomaly
321.61691°
Mean motion
3.91547 °/min
Orbital period
91.94 mins
BSTAR
0.00074855
Loading maneuver chart data...
Computing Atmospheric mass density...

Documentation

Showing up to 5 results
|